[Iaude] MPEC F151: 2019 FY1 [a=1.11,e=0.13,i=3.4,H=28.2]

mpec at mpcdb1.cfa.harvard.edu mpec at mpcdb1.cfa.harvard.edu
Sun Mar 31 19:15:17 EDT 2019


M.P.E.C. 2019-F151                               Issued 2019 Mar. 31, 23:11 UT
 
     The Minor Planet Electronic Circulars contain information on unusual
         minor planets and routine data on comets.  They are published
    on behalf of Division F of the International Astronomical Union by the
          Minor Planet Center, Smithsonian Astrophysical Observatory,
                          Cambridge, MA 02138, U.S.A.

             Prepared using the Tamkin Foundation Computer Network

                              MPC at CFA.HARVARD.EDU
            URL https://www.minorplanetcenter.net/    ISSN 1523-6714


                                   2019 FY1
 
Observations:
     K19F01Y* C2019 03 29.39759 13 57 59.41 +02 36 07.6          20.9 GVEF151G96
     K19F01Y  C2019 03 29.40271 13 57 56.96 +02 35 10.5          20.4 GVEF151G96
     K19F01Y  C2019 03 29.40782 13 57 54.39 +02 34 12.8          20.6 GVEF151G96
     K19F01Y  C2019 03 29.41295 13 57 51.86 +02 33 14.8          20.8 GVEF151G96
     K19F01Y  C2019 03 29.48914 13 57 15.63 +02 18 58.9          20.6 GVEF151I52
     K19F01Y  C2019 03 29.49164 13 57 14.42 +02 18 31.2          20.6 GVEF151I52
     K19F01Y  C2019 03 29.49289 13 57 13.87 +02 18 17.6          21.2 GVEF151I52
     K19F01Y KC2019 03 30.07416613 54 02.68 +00 32 38.4          21.0 GVEF151L01
     K19F01Y KC2019 03 30.07636213 54 01.74 +00 32 15.7          21.0 GVEF151L01
     K19F01Y KC2019 03 30.07803913 54 01.01 +00 31 57.6          20.8 GVEF151L01
     K19F01Y pC2019 03 30.08199713 53 59.29 +00 31 16.8          20.8 GVEF151L01
     K19F01Y KC2019 03 30.08293013 53 58.88 +00 31 07.3          20.9 GVEF151L01
     K19F01Y  C2019 03 30.33369713 52 45.41 -00 10 58.7          20.3 GVEF151H01
     K19F01Y  C2019 03 30.34226013 52 41.52 -00 12 25.9          20.7 GVEF151H01
     K19F01Y  C2019 03 30.34876313 52 38.55 -00 13 31.9          20.6 GVEF151H01
     K19F01Y  C2019 03 30.35719113 52 34.71 -00 14 57.2          21.3 GVEF151H01
     K19F01Y  C2019 03 30.38557 13 52 23.05 -00 19 35.9          21.0 GVEF151I52
     K19F01Y  C2019 03 30.39558 13 52 18.56 -00 21 16.6          20.7 GVEF151I52
     K19F01Y  C2019 03 30.40058 13 52 16.26 -00 22 07.4          20.8 GVEF151I52
     K19F01Y  C2019 03 31.36251 13 47 22.23 -02 55 21.1          21.0 GVEF151I52
     K19F01Y  C2019 03 31.36569 13 47 20.91 -02 55 49.9          20.9 GVEF151I52
     K19F01Y  C2019 03 31.36735 13 47 20.21 -02 56 04.9          21.2 GVEF151I52
 
Observer details:
G96 Mt. Lemmon Survey.  Observer B. M. Africano.  Measurers B. M. Africano,
    E. J. Christensen, G. A. Farneth, D. C. Fuls, A. R. Gibbs, A. D. Grauer,
    H. Groeller, R. A. Kowalski, S. M. Larson, G. J. Leonard, T. A. Pruyne,
    R. L. Seaman, F. C. Shelly.  1.5-m reflector + 10K CCD.
H01 Magdalena Ridge Observatory, Socorro.  Observers W. H. Ryan, E. V. Ryan.
    Measurer W. H. Ryan.  2.4-m f/8.9 Ritchey-Chretien + CCD.
I52 Steward Observatory, Mt. Lemmon Station.  Observer H. Groeller.
    Measurers B. M. Africano, E. J. Christensen, G. A. Farneth, D. C. Fuls,
    A. R. Gibbs, A. D. Grauer, H. Groeller, R. A. Kowalski, S. M. Larson,
    G. J. Leonard, T. A. Pruyne, R. L. Seaman, F. C. Shelly.  1.0-m reflector
    + CCD.
L01 Visnjan Observatory, Tican.  Observers K. Korlevic, G. Kervina,
    F. Valentine.  Measurer K. Korlevic.  1.0-m f/2.9 reflector + CCD.
 
Orbital elements:
2019 FY1                                                 Earth MOID = 0.0162 AU
Epoch 2019 Apr. 27.0 TT = JDT 2458600.5                 MPC
M  70.23476              (2000.0)            P               Q
n   0.84179519     Peri.  116.23558     -0.64107708     -0.76734959
a   1.1108747      Node    13.66424     +0.68138631     -0.57743947
e   0.1345002      Incl.    3.38690     +0.35317542     -0.27881582
P   1.17           H   28.2           G   0.15           U   6
Residuals in seconds of arc
190329 G96  0.5-  0.5-    190330 L01  0.2-  0.1+    190330 I52  0.3-  0.0
190329 G96  0.7+  0.1+    190330 L01  0.1-  0.5-    190330 I52  0.5+  0.3+
190329 G96  0.0   0.0     190330 L01  0.1+  0.1+    190330 I52  0.0   0.1-
190329 G96  0.1-  0.2-    190330 L01  0.0   0.3+    190331 I52  0.1-  0.0
190329 I52  0.7+  0.2-    190330 H01  0.1+  0.2+    190331 I52  0.1+  0.0
190329 I52  0.3-  0.1+    190330 H01  0.2+  0.1-    190331 I52  0.1+  0.0
190329 I52  0.1-  0.5+    190330 H01  0.0   0.1-
190330 L01  0.6-  0.1-    190330 H01  0.1-  0.0

Ephemeris:
2019 FY1                 a,e,i = 1.11, 0.13, 3                   q = 0.9615
Date    TT    R. A. (2000) Decl.     Delta      r     Elong.  Phase     V
2019 03 01    22 52 19.0 +57 26 09   0.03845 0.9753    65.3   112.6    25.4
...
2019 03 16    17 32 56.0 +61 19 50   0.01889 0.9956    92.8    86.1    22.6
...
2019 03 24    14 42 27.3 +24 50 18   0.01760 1.0093   134.9    44.4    21.1
...
2019 03 30    13 54 33.6 +00 50 07   0.02345 1.0204   159.0    20.6    21.1
2019 03 31    13 49 12.0 -01 56 05   0.02480 1.0223   161.6    18.0    21.2
2019 04 01    13 44 19.6 -04 24 41   0.02622 1.0243   163.8    15.8    21.2
...
2019 04 07    13 22 33.6 -14 39 48   0.03598 1.0363   170.3     9.3    21.7
...
2019 04 15    13 06 14.3 -21 17 18   0.05130 1.0531   166.8    12.5    22.6
...
2019 04 30    12 56 01.7 -25 33 59   0.08552 1.0858   156.0    22.1    24.1

A. U. Tomatic                (C) Copyright 2019 MPC           M.P.E.C. 2019-F151



More information about the Iaude mailing list